This demonstration page uses our WeatherBlox Daily Observations layout. Learn more.

Hourly Observations for June 8, 2020

Temp ( °F °C ) Dew Point ( °F °C ) Humidity (%) Winds ( mph kmh ) Pressure ( in mb ) Visibility ( mi km ) Precip ( " mm )
12:15 am 00:15 Clear 61 16 59 15 94 94 W 3 6 30.04 1017 10 16.0934 0 0
12:35 am 00:35 Clear 61 16 57 14 88 88 W 5 7 30.04 1017 10 16.0934 0 0
12:55 am 00:55 Clear 61 16 57 14 88 88 Calm 30.04 1017 10 16.0934 0 0
1:15 am 01:15 Clear 61 16 55 13 83 83 Calm 30.04 1017 10 16.0934 0 0
1:35 am 01:35 Clear 61 16 55 13 83 83 Calm 30.04 1017 10 16.0934 0 0
1:55 am 01:55 Clear 61 16 55 13 83 83 Calm 30.04 1017 10 16.0934 0 0
2:15 am 02:15 Clear 61 16 55 13 83 83 Calm 30.04 1017 10 16.0934 0 0
2:35 am 02:35 Clear 61 16 55 13 83 83 N 5 7 30.05 1018 10 16.0934 0 0
2:55 am 02:55 Clear 61 16 55 13 83 83 N 5 7 30.05 1018 10 16.0934 0 0
3:15 am 03:15 Clear 63 17 54 12 73 73 NNE 8 13 30.04 1017 10 16.0934 0 0
3:35 am 03:35 Clear 63 17 54 12 73 73 NNE 9 15 30.04 1017 10 16.0934 0 0
3:55 am 03:55 Clear 61 16 54 12 77 77 NNE 8 13 30.05 1018 10 16.0934 0 0
4:15 am 04:15 Clear 61 16 54 12 77 77 NNE 5 7 30.05 1018 10 16.0934 0 0
4:35 am 04:35 Clear 61 16 54 12 77 77 NNE 6 9 30.05 1018 10 16.0934 0 0
4:55 am 04:55 Clear 59 15 54 12 82 82 NNE 6 9 30.05 1018 10 16.0934 0 0
5:15 am 05:15 Clear 59 15 54 12 82 82 NNE 6 9 30.05 1018 10 16.0934 0 0
5:35 am 05:35 Clear 59 15 54 12 82 82 NNE 5 7 30.05 1018 10 16.0934 0 0
5:55 am 05:55 Sunny 59 15 54 12 82 82 NNE 3 6 30.06 1018 10 16.0934 0 0
6:15 am 06:15 Sunny 59 15 54 12 82 82 NNE 5 7 30.07 1018 10 16.0934 0 0
6:35 am 06:35 Sunny 59 15 54 12 82 82 NNE 6 9 30.09 1019 10 16.0934 0 0
6:55 am 06:55 Sunny 61 16 54 12 77 77 NNE 5 7 30.1 1019 10 16.0934 0 0
7:15 am 07:15 Sunny 61 16 54 12 77 77 NNE 5 7 30.1 1019 10 16.0934 0 0
7:35 am 07:35 Sunny 63 17 52 11 68 68 Calm 30.1 1019 10 16.0934 0 0
7:55 am 07:55 Sunny 63 17 52 11 68 68 NNE 5 7 30.11 1019 10 16.0934 0 0
8:15 am 08:15 Sunny 64 18 52 11 64 64 NE 7 11 30.11 1020 10 16.0934 0 0
8:35 am 08:35 Sunny 64 18 52 11 64 64 NE 3 6 30.11 1020 10 16.0934 0 0
8:55 am 08:55 Sunny 68 20 52 11 56 56 NE 5 7 30.11 1020 10 16.0934 0 0
9:15 am 09:15 Sunny 68 20 50 10 53 53 NE 6 9 30.11 1020 10 16.0934 0 0
9:35 am 09:35 Sunny 70 21 52 11 53 53 ENE 7 11 30.12 1020 10 16.0934 0 0
9:55 am 09:55 Sunny 70 21 52 11 53 53 NNE 8 13 30.12 1020 10 16.0934 0 0
10:15 am 10:15 Sunny 70 21 52 11 53 53 NNE 8 13 30.11 1020 10 16.0934 0 0
10:35 am 10:35 Sunny 70 21 52 11 53 53 NE 5 7 30.11 1020 10 16.0934 0 0
10:55 am 10:55 Sunny 72 22 50 10 47 47 ENE 7 11 30.11 1020 10 16.0934 0 0
11:15 am 11:15 Sunny 72 22 50 10 47 47 Calm 30.12 1020 10 16.0934 0 0
11:35 am 11:35 Sunny 73 23 52 11 47 47 N 3 6 30.11 1020 10 16.0934 0 0
11:55 am 11:55 Sunny 72 22 52 11 50 50 N 7 11 30.11 1020 10 16.0934 0 0
12:15 pm 12:15 Sunny 73 23 52 11 47 47 Calm 30.1 1019 10 16.0934 0 0
12:35 pm 12:35 Sunny 73 23 52 11 47 47 Calm 30.09 1019 10 16.0934 0 0
12:55 pm 12:55 Sunny 75 24 52 11 44 44 Calm 30.09 1019 10 16.0934 0 0
1:15 pm 13:15 Sunny 75 24 54 12 47 47 NNW 5 7 30.08 1018 10 16.0934 0 0
1:35 pm 13:35 Sunny 77 25 54 12 44 44 Calm 30.07 1018 10 16.0934 0 0
1:55 pm 13:55 Sunny 77 25 54 12 44 44 WSW 7 11 30.06 1018 10 16.0934 0 0
2:15 pm 14:15 Sunny 77 25 54 12 44 44 W 6 9 30.06 1018 10 16.0934 0 0
2:35 pm 14:35 Sunny 79 26 54 12 42 42 N 5 7 30.06 1018 10 16.0934 0 0
2:55 pm 14:55 Sunny 77 25 54 12 44 44 N 6 9 30.05 1018 10 16.0934 0 0
3:15 pm 15:15 Sunny 79 26 54 12 42 42 N 3 6 30.04 1017 10 16.0934 0 0
3:35 pm 15:35 Sunny 81 27 55 13 42 42 Calm 30.03 1017 10 16.0934 0 0
3:55 pm 15:55 Sunny 79 26 55 13 45 45 Calm 30.03 1017 10 16.0934 0 0
4:15 pm 16:15 Sunny 79 26 55 13 45 45 NW 5 7 30.01 1016 10 16.0934 0 0
4:35 pm 16:35 Sunny 81 27 55 13 42 42 NNE 6 9 30.01 1016 10 16.0934 0 0
4:55 pm 16:55 Sunny 79 26 54 12 42 42 NNW 5 7 30.01 1016 10 16.0934 0 0
5:15 pm 17:15 Sunny 81 27 52 11 37 37 NE 5 7 30.01 1016 10 16.0934 0 0
5:35 pm 17:35 Sunny 81 27 52 11 37 37 NW 5 7 30 1016 10 16.0934 0 0
5:55 pm 17:55 Sunny 81 27 54 12 39 39 NNE 7 11 30 1016 10 16.0934 0 0
6:15 pm 18:15 Sunny 81 27 54 12 39 39 NNW 3 6 29.99 1016 10 16.0934 0 0
6:35 pm 18:35 Sunny 79 26 52 11 39 39 NNW 5 7 29.99 1016 10 16.0934 0 0
6:55 pm 18:55 Sunny 81 27 54 12 39 39 N 5 7 29.98 1015 10 16.0934 0 0
7:15 pm 19:15 Sunny 79 26 54 12 42 42 Calm 29.98 1015 10 16.0934 0 0
7:35 pm 19:35 Sunny 79 26 52 11 39 39 Calm 29.99 1016 10 16.0934 0 0
7:55 pm 19:55 Sunny 79 26 52 11 39 39 NE 3 6 30 1016 10 16.0934 0 0
8:15 pm 20:15 Sunny 77 25 52 11 42 42 NE 5 7 30 1016 10 16.0934 0 0
8:35 pm 20:35 Clear 77 25 52 11 42 42 Calm 30 1016 10 16.0934 0 0
8:55 pm 20:55 Clear 72 22 55 13 57 57 Calm 30.01 1016 10 16.0934 0 0
9:15 pm 21:15 Clear 70 21 55 13 60 60 Calm 30.01 1016 10 16.0934 0 0
9:35 pm 21:35 Clear 72 22 55 13 57 57 SSW 3 6 30.02 1017 10 16.0934 0 0
9:55 pm 21:55 Clear 68 20 59 15 73 73 Calm 30.03 1017 10 16.0934 0 0
10:15 pm 22:15 Clear 70 21 59 15 69 69 Calm 30.03 1017 10 16.0934 0 0
10:35 pm 22:35 Clear 64 18 59 15 83 83 Calm 30.03 1017 10 16.0934 0 0
10:55 pm 22:55 Clear 64 18 59 15 83 83 Calm 30.03 1017 10 16.0934 0 0
11:15 pm 23:15 Clear 64 18 59 15 83 83 Calm 30.04 1017 10 16.0934 0 0
11:35 pm 23:35 Clear 66 19 59 15 78 78 Calm 30.04 1017 10 16.0934 0 0
11:55 pm 23:55 Clear 63 17 59 15 88 88 Calm 30.05 1017 10 16.0934 0 0

Powered by AerisWeather